GEC8346 EDDM-LTFM

Flight info

Callsign GEC8346
Flight time N/A
Altitude 39000
Route KIRDI2E KIRDI DCT BUBSE DCT GOTAR DCT NALOX DCT BABIT DCT KOTUS DCT IRGOR DCT ETIDA T390 RILEX
Aircraft B77L/H-SDE2E3FGHIJ1J3J4J5M1P2RWXYZ/LB1D1

Departure

Time N/A
Airport Munich Airport (EDDM)

Arrival

Time 2026-05-01 08:00
Airport İstanbul Airport (LTFM)
Time Latitude Longitude Altitude Speed Heading
2026-05-01 07:23 42.76503 25.02549 39160 ft 535 kts 123°
2026-05-01 07:24 42.70484 25.15327 39160 ft 536 kts 123°
2026-05-01 07:24 42.66457 25.23849 39178 ft 537 kts 124°
2026-05-01 07:25 42.62399 25.32409 39198 ft 536 kts 124°
2026-05-01 07:25 42.58387 25.40849 39218 ft 537 kts 124°
2026-05-01 07:26 42.54332 25.49353 39246 ft 538 kts 124°
2026-05-01 07:26 42.50283 25.57824 39272 ft 538 kts 124°
2026-05-01 07:27 42.46231 25.66274 39284 ft 537 kts 124°
2026-05-01 07:27 42.42128 25.74809 39288 ft 538 kts 125°
2026-05-01 07:28 42.38062 25.83241 39282 ft 539 kts 125°
2026-05-01 07:28 42.33960 25.91725 39285 ft 537 kts 125°
2026-05-01 07:29 42.29899 26.00101 39287 ft 538 kts 125°
2026-05-01 07:29 42.25816 26.08496 39285 ft 537 kts 125°
2026-05-01 07:30 42.21523 26.16792 39273 ft 537 kts 128°
2026-05-01 07:30 42.17129 26.24876 39255 ft 537 kts 128°
2026-05-01 07:31 42.12706 26.33018 39248 ft 538 kts 128°
2026-05-01 07:32 42.01741 26.53178 38129 ft 533 kts 128°
2026-05-01 07:32 41.99549 26.57195 37052 ft 535 kts 128°
2026-05-01 07:33 41.95244 26.65078 35461 ft 518 kts 129°
2026-05-01 07:33 41.93100 26.68997 34577 ft 512 kts 130°
2026-05-01 07:33 41.88940 26.76586 33008 ft 502 kts 130°
2026-05-01 07:34 41.86869 26.80355 32194 ft 501 kts 129°
2026-05-01 07:34 41.82711 26.87906 30412 ft 502 kts 129°
2026-05-01 07:34 41.80669 26.91613 29734 ft 493 kts 129°
2026-05-01 07:35 41.78662 26.95251 29144 ft 483 kts 129°
2026-05-01 07:35 41.76678 26.98844 28586 ft 475 kts 130°
2026-05-01 07:35 41.74675 27.02459 27992 ft 488 kts 129°
2026-05-01 07:35 41.72680 27.06058 27354 ft 488 kts 129°
2026-05-01 07:36 41.70658 27.09705 26722 ft 483 kts 130°
2026-05-01 07:36 41.68690 27.13252 26108 ft 478 kts 129°
2026-05-01 07:36 41.66713 27.16808 25478 ft 473 kts 129°
2026-05-01 07:36 41.64759 27.20321 24857 ft 468 kts 129°
2026-05-01 07:37 41.60926 27.27197 23619 ft 459 kts 129°
2026-05-01 07:37 41.59023 27.30606 22979 ft 455 kts 129°
2026-05-01 07:37 41.57143 27.33968 22354 ft 451 kts 129°
2026-05-01 07:38 41.55278 27.37300 21722 ft 448 kts 129°
2026-05-01 07:38 41.53447 27.40568 21092 ft 444 kts 129°
2026-05-01 07:38 41.49785 27.47094 19828 ft 438 kts 129°
2026-05-01 07:39 41.47968 27.50327 19202 ft 435 kts 129°
2026-05-01 07:39 41.46164 27.53532 18567 ft 432 kts 129°
2026-05-01 07:39 41.42590 27.59874 17284 ft 427 kts 128°
2026-05-01 07:40 41.40837 27.62979 16647 ft 424 kts 128°
2026-05-01 07:40 41.39074 27.66099 15912 ft 423 kts 128°
2026-05-01 07:40 41.37295 27.69244 15062 ft 424 kts 128°
2026-05-01 07:40 41.35546 27.72333 14415 ft 419 kts 128°
2026-05-01 07:41 41.33829 27.75363 13794 ft 399 kts 127°
2026-05-01 07:41 41.32214 27.78212 13244 ft 380 kts 127°
2026-05-01 07:41 41.29071 27.83743 12137 ft 381 kts 127°
2026-05-01 07:42 41.27476 27.86548 11467 ft 380 kts 126°
2026-05-01 07:42 41.25892 27.89331 10889 ft 375 kts 126°
2026-05-01 07:42 41.24352 27.92030 10773 ft 357 kts 126°
2026-05-01 07:42 41.22889 27.94596 10718 ft 341 kts 126°
2026-05-01 07:43 41.21488 27.97049 10593 ft 327 kts 126°
2026-05-01 07:43 41.20153 27.99387 10442 ft 316 kts 126°
2026-05-01 07:43 41.17588 28.03874 10154 ft 295 kts 125°
2026-05-01 07:44 41.15163 28.08110 9654 ft 285 kts 125°
2026-05-01 07:44 41.12761 28.12300 8902 ft 285 kts 124°
2026-05-01 07:45 41.11577 28.14362 8570 ft 283 kts 124°
2026-05-01 07:45 41.10386 28.16436 8223 ft 282 kts 124°
2026-05-01 07:45 41.09207 28.18486 7882 ft 281 kts 123°
2026-05-01 07:45 41.08028 28.20535 7546 ft 279 kts 123°
2026-05-01 07:46 41.06856 28.22572 7268 ft 275 kts 123°
2026-05-01 07:46 41.05694 28.24590 6904 ft 275 kts 122°
2026-05-01 07:46 41.03401 28.28567 6301 ft 270 kts 122°
2026-05-01 07:47 41.02276 28.30518 5941 ft 270 kts 122°
2026-05-01 07:47 41.01141 28.32484 5608 ft 269 kts 121°
2026-05-01 07:47 41.00009 28.34442 5283 ft 266 kts 121°
2026-05-01 07:47 40.98888 28.36379 5014 ft 260 kts 121°
2026-05-01 07:48 40.97624 28.40424 4914 ft 238 kts 89°
2026-05-01 07:48 40.97561 28.42606 4677 ft 233 kts 85°
2026-05-01 07:48 40.97555 28.44735 4438 ft 229 kts 84°
2026-05-01 07:49 40.97555 28.46833 4216 ft 225 kts 84°
2026-05-01 07:49 40.97306 28.50888 3811 ft 221 kts 95°
2026-05-01 07:49 40.96993 28.52828 3624 ft 213 kts 95°
2026-05-01 07:50 40.96685 28.54726 3467 ft 204 kts 94°
2026-05-01 07:50 40.96106 28.58367 3089 ft 205 kts 94°
2026-05-01 07:50 40.95952 28.60187 2991 ft 190 kts 83°
2026-05-01 07:51 40.95960 28.61840 2984 ft 173 kts 82°
2026-05-01 07:51 40.95980 28.63368 2991 ft 164 kts 81°
2026-05-01 07:51 40.96002 28.64896 2945 ft 168 kts 81°
2026-05-01 07:52 40.96310 28.67713 2887 ft 145 kts 58°
2026-05-01 07:52 40.96921 28.68747 2917 ft 144 kts 40°
2026-05-01 07:52 40.97767 28.69474 2955 ft 147 kts 32°
2026-05-01 07:53 40.99623 28.70816 2991 ft 155 kts 25°
2026-05-01 07:53 41.00676 28.71156 2999 ft 157 kts 11°
2026-05-01 07:53 41.01773 28.71233 3001 ft 159 kts
2026-05-01 07:53 41.02897 28.71229 2996 ft 160 kts
2026-05-01 07:54 41.05135 28.71176 2997 ft 161 kts
2026-05-01 07:55 41.08499 28.71098 2986 ft 160 kts
2026-05-01 07:55 41.10739 28.71056 3005 ft 161 kts
2026-05-01 07:56 41.14051 28.70988 2794 ft 149 kts
2026-05-01 07:56 41.15921 28.70951 2444 ft 122 kts
2026-05-01 07:57 41.16765 28.70939 2311 ft 121 kts
2026-05-01 07:57 41.18456 28.70901 1993 ft 121 kts
2026-05-01 07:58 41.20147 28.70869 1637 ft 122 kts
2026-05-01 07:58 41.21857 28.70835 1275 ft 123 kts
2026-05-01 07:59 41.23592 28.70800 941 ft 125 kts
2026-05-01 07:59 41.25311 28.70731 625 ft 126 kts
2026-05-01 08:00 41.28138 28.70711 341 ft 13 kts
2026-05-01 08:01 41.28427 28.70858 341 ft 14 kts 29°
2026-05-01 08:01 41.28495 28.70948 341 ft 13 kts 71°
2026-05-01 08:01 41.28500 28.71075 341 ft 13 kts 89°
2026-05-01 08:02 41.28504 28.71331 341 ft 14 kts 89°
2026-05-01 08:02 41.28504 28.71463 341 ft 14 kts 90°
2026-05-01 08:03 41.28508 28.71734 341 ft 14 kts 89°
2026-05-01 08:03 41.28508 28.71873 341 ft 15 kts 93°
2026-05-01 08:03 41.28512 28.72154 341 ft 14 kts 88°
2026-05-01 08:04 41.28384 28.72262 341 ft 15 kts 188°
2026-05-01 08:04 41.28152 28.72260 341 ft 18 kts 179°
2026-05-01 08:05 41.27885 28.72264 341 ft 20 kts 180°
2026-05-01 08:05 41.27743 28.72267 341 ft 20 kts 179°
2026-05-01 08:05 41.27601 28.72269 341 ft 19 kts 180°
2026-05-01 08:06 41.27400 28.72269 341 ft 10 kts 197°
2026-05-01 08:06 41.27366 28.72150 341 ft 7 kts 270°
2026-05-01 08:07 41.27365 28.72109 341 ft 0 kts 269°